Location: Gunnedah
(30.9923°S, 150.2369°E)
Time: 06:47:39
(UTC+10:00)

ISS - Visible Passes

Search period start: 22 August 2019 00:00
Search period end: 01 September 2019 00:00
Orbit: 410 x 421 km, 51.6° (Epoch: 22 August)

Date Brightness Start Highest point End Pass type
(mag) Time Alt. Az. Time Alt. Az. Time Alt. Az.
22 Aug -1.2 19:08:35 10° W 19:10:54 17° SW 19:12:27 13° S visible
23 Aug -1.9 18:19:02 10° WNW 18:22:02 28° SW 18:25:02 10° SSE visible
25 Aug -0.9 18:20:13 10° SW 18:21:32 12° SSW 18:22:51 10° S visible
